Time,TemperatureF,DewpointF,PressureIn,WindDirection,WindDirectionDegrees,WindSpeedMPH,WindSpeedGustMPH,Humidity,HourlyPrecipIn,Conditions,Clouds,dailyrainin,SolarRadiationWatts/m^2,SoftwareType,DateUTC
2013-11-19 00:20:00,38.0,21.0,-100.00,SE,126,1.0,4.0,51,-99.99,,,-99.99,0.000000,,2013-11-19 08:20:00,
2013-11-19 01:20:00,39.0,23.0,29.93,SW,223,2.0,4.0,52,-99.99,,,-99.99,0.000000,,2013-11-19 09:20:00,
2013-11-19 02:12:00,39.0,23.0,29.93,SW,223,2.0,4.0,52,-99.99,,,-99.99,0.000000,,2013-11-19 10:12:00,
2013-11-19 02:20:00,38.0,22.0,29.94,SW,218,1.0,3.0,51,-99.99,,,-99.99,0.000000,,2013-11-19 10:20:00,
2013-11-19 03:20:00,39.0,22.0,29.94,NW,308,0.0,3.0,51,-99.99,,,-99.99,0.000000,,2013-11-19 11:20:00,
2013-11-19 04:20:00,39.0,24.0,29.94,ENE,72,2.0,4.0,54,-99.99,,,-99.99,0.000000,,2013-11-19 12:20:00,
2013-11-19 05:11:00,39.0,24.0,29.94,ENE,72,2.0,4.0,54,-99.99,,,-99.99,0.000000,,2013-11-19 13:11:00,
2013-11-19 05:20:00,40.0,23.0,29.95,SW,233,3.0,4.0,51,-99.99,,,-99.99,0.000000,,2013-11-19 13:20:00,
2013-11-19 07:20:00,40.0,23.0,29.98,SE,126,3.0,4.0,52,-99.99,,,-99.99,27.000000,,2013-11-19 15:20:00,
2013-11-19 08:20:00,47.0,27.0,-100.00,SE,125,2.0,3.0,47,-99.99,,,-99.99,145.000000,,2013-11-19 16:20:00,
2013-11-19 09:20:00,48.0,26.0,-100.00,NW,312,2.0,3.0,42,-99.99,,,-99.99,180.000000,,2013-11-19 17:20:00,
2013-11-19 10:20:00,51.0,27.0,-100.00,WSW,248,1.0,3.0,39,-99.99,,,-99.99,243.000000,,2013-11-19 18:20:00,
2013-11-19 11:20:00,54.0,27.0,-100.00,NW,324,1.0,3.0,34,-99.99,,,-99.99,338.000000,,2013-11-19 19:20:00,
2013-11-19 12:20:00,58.0,26.0,-100.00,NW,318,2.0,4.0,29,-99.99,,,-99.99,318.000000,,2013-11-19 20:20:00,
2013-11-19 13:20:00,57.0,25.0,-100.00,NW,312,0.0,2.0,29,-99.99,,,-99.99,179.000000,,2013-11-19 21:20:00,
2013-11-19 14:20:00,57.0,26.0,-100.00,West,272,3.0,5.0,30,-99.99,,,-99.99,153.000000,,2013-11-19 22:20:00,
2013-11-19 15:20:00,56.0,25.0,-100.00,NW,311,1.0,3.0,30,-99.99,,,-99.99,84.000000,,2013-11-19 23:20:00,
2013-11-19 16:20:00,55.0,26.0,-100.00,NW,313,1.0,2.0,32,-99.99,,,-99.99,21.000000,,2013-11-20 00:20:00,
2013-11-19 17:20:00,52.0,25.0,-100.00,SSE,165,1.0,3.0,35,-99.99,,,-99.99,0.000000,,2013-11-20 01:20:00,
2013-11-19 18:20:00,48.0,25.0,-100.00,East,90,1.0,2.0,40,-99.99,,,-99.99,0.000000,,2013-11-20 02:20:00,
2013-11-19 20:20:00,45.0,25.0,-100.00,SE,133,2.0,4.0,45,-99.99,,,-99.99,0.000000,,2013-11-20 04:20:00,
2013-11-19 21:20:00,45.0,26.0,-100.00,SSE,149,2.0,4.0,47,-99.99,,,-99.99,0.000000,,2013-11-20 05:20:00,
2013-11-19 22:20:00,46.0,30.0,-100.00,North,1,2.0,4.0,54,-99.99,,,-99.99,0.000000,,2013-11-20 06:20:00,
2013-11-19 23:20:00,47.0,36.0,-100.00,SSE,148,2.0,4.0,66,-99.99,,,-99.99,0.000000,,2013-11-20 07:20:00,